Theta_e
293 293 293 293 292 292 293 293 292 292 293 294 294 294 294 293 293 294 294 293 292 293 293 292 292 292 293 293 286 291 289 287 288 288 282 292 289 293 290 292 290 289 291 290 292 290 295 292 291 289 290 292 293 291
292 293 292 293 292 292 292 292 292 292 292 293 294 294 293 293 292 293 293 293 293 293 292 292 292 293 292 292 292 291 291 289 291 285 281 281 282 281 283 282 288 287 290 286 293 293 292 291 290 289 291 290 290 289
292 291 292 291 292 291 291 292 292 292 292 292 293 293 293 293 292 292 293 293 293 293 293 292 292 291 291 291 291 292 291 292 291 292 285 288 285 286 280 282 286 288 289 288 288 289 289 289 289 289 289 288 288 287
291 291 292 292 291 291 291 291 291 291 291 291 292 292 292 292 292 292 292 292 293 292 291 291 290 290 290 290 291 292 292 292 291 291 291 289 284 289 285 289 288 288 289 288 288 290 289 289 289 289 288 287 286 286
291 290 291 291 291 291 291 291 290 290 291 290 291 291 292 292 292 291 291 291 292 292 291 291 291 291 291 291 291 291 291 292 292 292 291 290 286 287 284 289 289 289 289 289 288 289 289 289 289 288 286 284 283 281
291 290 291 290 290 290 290 290 290 290 290 290 290 290 290 291 291 291 292 291 291 291 292 285 290 290 290 290 291 291 291 291 291 292 292 290 290 290 289 285 289 289 289 289 289 289 288 288 287 285 283 282 281 279
290 290 290 290 291 290 290 290 290 290 290 290 291 291 291 291 291 292 291 290 290 291 291 290 285 290 290 290 290 290 291 291 291 291 292 291 290 291 290 290 290 289 289 289 289 287 285 286 284 282 281 279 278 278
290 290 290 290 290 290 290 290 290 290 289 289 290 290 290 290 290 291 291 291 290 290 290 290 289 288 289 289 289 290 290 290 290 291 290 290 290 290 290 290 290 290 289 288 282 281 280 280 280 279 277 277 278 278
290 290 290 290 290 290 289 289 289 289 289 289 289 289 290 290 291 291 291 291 291 291 289 286 283 288 289 290 290 289 290 289 290 290 290 290 290 289 288 289 287 280 279 276 278 278 278 277 277 277 275 275 272 273
289 289 289 289 289 289 289 289 289 289 289 288 289 290 291 290 291 290 289 289 289 289 289 287 288 281 288 287 285 285 289 288 289 285 289 289 287 289 279 277 276 274 274 274 274 274 273 274 272 273 272 271 269 268
288 288 288 288 288 288 289 289 288 288 288 289 290 290 289 288 288 289 289 289 289 287 290 289 288 289 288 286 284 289 289 288 288 282 282 271 275 281 272 272 271 272 272 271 271 270 270 270 271 271 273 272 269 268
287 287 287 287 288 288 288 288 288 289 289 288 289 289 290 289 288 287 287 287 287 286 281 280 285 288 288 288 284 287 286 286 286 273 276 276 279 268 269 270 270 270 271 271 271 271 270 269 269 268 266 266 265 263
286 286 286 286 287 287 287 288 288 288 288 288 288 288 288 288 288 287 283 277 276 275 283 284 283 288 287 288 285 286 285 283 274 276 280 279 269 267 267 268 270 269 269 268 269 268 268 268 268 265 264 264 264 263
285 285 286 286 286 287 287 287 287 288 288 288 288 287 287 284 282 282 278 276 280 281 283 285 283 282 285 284 286 285 283 279 280 280 280 264 265 266 267 266 266 266 266 266 267 266 266 265 265 265 265 264 263 263
285 285 285 285 286 286 286 286 287 287 288 288 288 287 285 278 278 278 279 279 278 281 282 282 284 286 281 287 287 284 284 281 279 279 266 264 264 264 264 264 264 265 265 265 264 264 264 264 263 264 264 264 264 264
285 285 285 285 285 286 286 286 286 287 288 287 284 282 276 276 273 276 276 275 277 279 281 282 282 285 283 284 285 283 278 278 276 258 263 263 263 263 263 263 263 263 263 263 263 263 263 263 263 263 264 264 264 264
285 285 284 284 284 286 286 287 288 286 286 280 270 274 274 273 271 270 273 274 275 277 277 279 282 282 281 284 281 272 274 262 261 261 263 262 262 262 262 262 262 262 262 262 262 263 263 263 263 263 263 264 264 264
284 284 284 284 285 286 286 286 285 282 273 271 269 267 270 270 269 270 271 273 274 274 274 274 274 273 274 275 273 260 261 262 261 261 262 262 261 262 262 261 262 262 262 262 263 263 263 262 263 262 263 263 264 264
284 284 284 284 285 285 284 282 281 272 268 267 267 267 268 267 268 269 270 270 271 272 272 270 268 268 267 258 256 261 260 259 259 260 262 262 262 262 262 262 262 263 263 263 262 262 262 262 262 262 262 263 263 264
284 284 285 285 285 283 280 278 276 272 266 267 267 266 265 266 266 267 268 269 270 270 266 266 261 260 260 262 261 261 261 260 259 260 263 262 262 262 262 262 263 263 263 263 262 262 263 263 262 262 262 263 263 264
284 283 284 284 281 280 276 273 270 269 268 266 266 266 264 265 265 266 266 268 268 265 261 262 262 261 261 261 261 260 260 260 260 260 260 262 262 262 262 263 263 263 263 263 263 263 262 262 262 263 263 263 264 265
283 283 281 281 279 276 273 272 270 269 268 266 266 265 262 256 262 264 264 264 262 262 262 262 261 261 261 260 260 261 261 261 261 262 262 262 262 263 262 263 264 263 263 263 263 263 263 263 264 264 264 265 265 265
281 282 280 278 276 273 268 271 270 269 264 263 265 259 258 258 264 264 261 261 262 262 261 261 261 261 261 261 261 261 262 262 263 263 263 263 263 263 263 263 263 264 264 263 263 263 263 264 265 265 265 266 266 266
278 276 271 268 268 262 268 264 268 267 266 261 259 260 258 256 264 259 259 257 262 262 262 262 261 261 261 261 262 262 263 263 263 264 264 264 264 264 264 263 263 263 262 263 263 264 264 264 264 265 265 266 266 266
272 262 264 258 263 261 258 257 258 260 260 258 259 260 259 263 261 258 259 258 262 262 262 262 262 262 262 262 263 263 263 263 264 264 264 264 264 264 263 263 263 262 262 263 263 263 263 263 264 264 264 264 264 264
257 256 257 253 257 258 256 258 257 258 257 259 259 259 262 259 260 260 257 263 263 263 264 264 263 263 263 264 264 264 264 264 264 264 264 264 264 263 263 263 263 262 262 262 262 262 262 262 262 263 263 263 263 264
256 254 258 259 259 260 257 259 259 258 258 259 256 258 260 261 259 258 263 263 264 265 265 264 265 264 265 264 264 264 264 264 264 264 263 263 263 263 263 263 263 263 263 263 263 263 263 263 263 262 262 262 263 263
257 258 257 257 258 257 253 253 255 256 257 257 257 259 261 263 261 263 263 264 264 265 265 265 265 265 265 265 264 265 264 263 263 263 264 264 264 263 263 263 263 263 263 263 263 263 263 263 264 264 264 263 263 263
258 258 258 253 255 256 252 254 252 258 258 258 254 257 258 262 263 263 263 264 264 265 265 265 265 265 265 265 265 264 264 264 263 263 264 264 264 264 264 263 263 263 263 263 263 263 263 263 263 264 264 264 264 264
257 258 257 253 254 256 258 258 258 258 258 258 258 259 260 262 264 263 264 264 265 266 266 265 265 265 265 265 265 264 264 264 264 264 264 264 263 263 263 263 263 263 263 264 264 264 264 264 264 263 263 264 264 264
257 258 257 255 253 257 258 258 258 258 257 258 258 257 259 262 265 266 266 265 265 265 265 265 266 266 265 265 265 265 265 264 264 264 263 263 264 264 264 264 264 264 264 264 264 264 264 265 265 265 265 265 265 265
258 256 252 257 255 257 258 258 258 258 257 258 258 258 259 260 262 266 267 267 267 267 267 266 266 267 266 265 265 265 265 265 265 264 264 264 264 264 265 265 265 265 264 264 264 264 265 265 265 265 265 265 265 265
256 256 255 255 256 256 257 257 256 256 257 258 259 258 259 259 258 267 267 267 267 266 266 266 266 266 266 266 266 266 265 265 265 265 265 265 265 265 265 265 265 265 264 264 265 265 265 265 265 265 265 265 265 265
Wind_Speed
25 25 23 23 25 26 23 24 24 28 28 27 28 27 26 24 23 24 29 26 24 17 25 18 15 16 8 8 4 2 4 2 2 2 3 3 3 3 2 3 2 5 4 4 4 4 13 23 9 5 11 15 14 22
27 28 26 26 25 26 27 28 28 26 28 30 27 29 27 25 26 22 28 26 26 27 20 15 15 21 28 29 24 13 10 6 8 2 1 2 2 1 4 4 4 4 6 3 4 4 23 30 13 24 7 8 13 15
29 29 30 28 28 28 27 27 26 27 26 30 28 27 27 26 25 24 26 26 25 27 28 32 29 38 35 38 37 21 21 22 21 18 4 2 5 3 3 5 3 4 11 4 2 7 11 28 31 23 10 17 22 22
32 33 33 31 28 27 28 26 27 29 28 27 28 29 28 27 27 24 26 28 28 12 6 19 23 28 32 28 25 39 41 26 22 17 8 4 3 10 4 6 6 8 1 8 10 15 23 25 21 17 23 26 21 25
33 32 33 32 31 29 28 25 26 28 26 28 30 29 29 27 26 25 28 31 30 28 3 5 15 17 13 15 25 27 34 34 27 11 5 5 5 3 3 3 8 15 15 11 14 21 19 24 27 24 25 19 22 27
34 33 33 31 30 29 29 27 24 26 28 28 27 27 25 26 25 25 22 36 37 32 9 2 11 19 24 32 36 37 32 31 22 9 5 9 21 8 4 4 12 25 32 36 23 33 28 32 31 25 14 20 30 28
32 31 31 31 30 27 27 26 25 24 28 26 24 23 23 23 23 27 6 6 14 28 8 3 4 9 24 30 30 27 28 16 18 12 7 10 17 13 5 10 16 28 29 32 28 25 20 23 11 16 27 26 33 38
32 30 29 30 30 27 26 26 25 24 25 25 24 23 23 23 25 31 35 21 16 14 9 3 3 3 9 8 8 19 16 17 11 11 7 6 12 10 7 13 29 32 27 21 11 14 16 22 25 25 28 34 40 45
31 29 28 28 28 26 26 27 25 23 25 24 22 21 23 27 26 27 27 20 27 22 3 4 4 5 8 8 7 7 9 3 8 6 6 8 5 6 10 16 12 6 3 8 12 16 17 19 28 31 35 40 37 46
22 23 25 27 28 27 26 26 24 23 22 20 18 16 9 11 26 14 8 10 10 12 11 3 8 3 12 10 5 3 5 3 3 5 4 4 6 22 3 1 1 4 8 12 14 14 24 30 31 37 39 40 38 43
24 26 27 28 27 28 26 25 23 20 17 17 9 11 10 14 15 10 7 7 8 3 8 10 19 6 11 3 4 8 3 3 3 5 6 1 3 2 1 1 4 6 9 12 14 18 21 25 34 40 46 47 47 48
25 25 27 27 25 25 25 24 23 21 22 14 9 11 14 9 6 5 5 3 3 5 3 4 11 18 9 9 3 6 4 3 4 2 3 2 3 3 4 7 9 12 15 18 20 25 27 29 32 37 40 44 43 41
22 22 22 21 22 24 24 23 22 22 19 18 11 9 8 7 6 6 7 3 1 3 8 8 2 8 7 10 2 3 4 5 3 2 4 4 4 4 11 13 16 18 22 24 27 28 31 34 35 35 38 38 36 37
23 23 23 23 22 21 22 22 23 21 19 11 9 7 7 3 4 4 5 5 5 4 5 7 3 3 3 2 3 4 4 3 2 3 7 1 4 13 16 18 23 26 27 30 32 33 33 33 35 34 33 31 33 35
19 20 20 21 22 22 22 22 23 24 18 11 7 6 5 3 4 8 12 9 4 5 4 2 1 3 2 3 3 2 2 4 5 5 1 3 12 16 20 22 24 27 30 31 31 32 32 30 30 30 28 28 26 26
20 19 19 18 18 20 22 22 23 27 12 7 2 4 2 3 1 4 5 5 3 5 4 2 2 2 4 2 4 5 4 6 4 2 5 12 16 19 20 21 24 26 27 29 28 28 28 26 25 25 26 22 20 20
14 19 18 16 16 18 17 22 17 8 7 6 1 9 9 10 7 4 4 6 4 5 3 1 4 8 2 2 3 4 5 2 3 8 10 13 16 18 19 22 23 24 25 24 24 22 21 19 20 21 21 18 15 15
14 14 14 11 11 14 11 11 6 4 5 1 1 5 8 10 10 7 6 6 4 4 3 3 1 2 5 5 4 2 2 3 7 8 13 13 12 14 16 19 20 20 20 19 16 17 17 17 17 17 16 14 12 10
7 12 19 16 14 8 5 3 3 4 4 5 8 10 9 10 8 7 6 5 5 5 4 3 2 3 3 2 3 4 3 5 7 12 12 8 10 13 14 16 17 16 14 13 14 14 13 11 12 13 11 10 9 9
7 7 21 26 19 4 5 5 3 7 3 4 6 6 7 7 9 8 6 6 5 3 2 2 3 3 3 4 3 6 6 6 8 11 9 9 10 12 14 15 14 14 12 12 12 11 12 11 12 11 9 8 8 9
7 10 10 13 11 7 6 4 7 6 8 6 8 5 6 5 4 3 3 4 2 1 2 3 4 4 3 4 4 4 4 5 4 4 8 10 12 13 15 14 13 14 15 16 17 15 14 13 11 9 9 10 10 8
8 9 8 7 5 5 8 9 6 5 6 7 4 3 5 2 2 2 2 1 1 2 3 4 3 2 1 2 2 2 1 1 1 2 3 5 8 11 15 16 17 19 19 19 19 18 16 14 13 12 12 12 11 11
8 5 5 6 5 7 3 4 5 4 4 0 3 3 2 2 1 1 1 2 2 4 4 3 3 4 5 4 4 5 5 4 5 5 5 5 6 7 10 13 16 17 18 18 18 18 19 17 15 14 13 13 12 13
7 5 7 7 10 2 2 6 4 4 4 3 3 2 2 2 0 2 2 3 4 7 6 6 8 8 8 7 7 8 8 7 7 6 4 4 4 6 8 9 11 13 13 13 14 15 16 16 15 15 14 14 13 13
4 10 7 6 8 5 5 5 5 4 2 2 3 2 2 0 1 1 2 2 10 10 9 9 9 9 9 8 7 5 4 3 2 2 3 5 6 5 6 8 9 10 10 10 11 12 12 12 12 13 12 12 12 12
8 8 5 1 4 4 0 3 2 2 2 2 1 2 1 2 1 4 3 5 9 13 13 12 12 11 9 7 5 2 1 2 4 6 6 6 7 7 8 8 9 10 11 11 12 12 12 12 11 11 10 10 10 9
5 4 6 7 2 3 4 4 2 2 2 2 1 1 2 1 4 3 2 7 8 11 12 11 10 8 6 6 4 2 3 3 5 6 7 7 7 6 6 7 8 8 9 10 12 13 13 13 12 12 11 12 12 11
4 5 3 6 5 5 4 2 2 2 2 2 2 2 4 4 3 1 3 8 8 11 12 11 11 9 7 5 4 4 5 6 7 6 6 5 5 5 5 5 6 8 9 11 12 13 14 14 14 13 13 13 13 12
5 3 3 4 3 4 1 3 3 2 3 3 3 2 3 3 3 2 3 9 11 12 12 12 11 9 8 6 5 5 6 6 7 7 7 7 6 5 5 7 8 10 11 11 13 15 16 17 18 18 17 17 15 15
4 5 2 2 2 1 1 2 1 2 3 4 4 5 5 5 5 6 8 11 14 14 11 11 11 11 10 10 8 8 8 8 8 9 9 8 8 9 9 11 13 14 16 17 17 17 17 19 18 19 19 18 18 18
4 2 1 1 2 1 1 3 6 7 5 4 8 7 6 6 4 4 9 11 13 14 16 16 15 13 13 12 12 12 12 10 10 10 12 14 14 14 14 15 15 16 18 19 21 22 23 22 22 21 20 19 17 17
4 2 2 1 2 1 3 3 2 2 3 3 3 3 3 4 4 2 2 9 13 14 13 13 13 11 10 11 13 15 14 13 14 15 17 18 18 16 16 15 16 18 20 23 24 25 25 25 25 23 23 21 19 18
2 2 1 2 1 1 3 6 2 3 2 2 2 2 2 3 5 1 1 1 2 3 5 7 9 10 11 12 12 12 13 13 14 15 16 17 18 17 18 19 20 22 24 26 27 27 27 26 26 25 25 24 23 22
Wind_Direction
263 265 264 262 261 262 259 265 264 263 263 261 253 254 253 250 252 244 244 240 235 244 253 237 245 232 221 213 171 213 346 286 42 166 150 237 207 200 266 207 267 291 301 304 310 291 264 5 356 355 288 291 305 323
261 264 264 259 263 265 267 269 273 264 254 258 256 252 251 247 254 249 250 249 246 243 252 258 247 254 246 249 253 232 227 183 228 118 262 54 320 300 164 265 229 264 206 217 194 262 314 317 302 309 280 301 302 302
258 263 262 259 261 266 263 267 267 273 262 258 259 256 253 250 248 244 250 253 244 241 255 257 252 264 264 254 252 237 244 242 242 250 189 213 222 148 187 232 204 251 259 244 341 262 280 284 293 290 290 316 312 311
264 263 259 257 256 259 264 266 266 270 256 261 264 260 254 251 247 240 246 251 245 240 242 259 266 263 269 260 249 239 250 247 248 241 226 199 195 202 220 239 221 228 243 244 265 274 277 277 281 289 298 303 291 305
263 264 265 264 259 255 256 258 266 269 261 257 258 257 251 250 249 252 254 253 245 232 280 282 274 262 259 262 245 246 244 240 239 238 214 224 224 200 242 250 247 240 251 254 260 265 276 283 289 283 302 288 299 309
259 262 259 258 258 260 258 259 259 265 266 262 260 258 256 249 248 247 256 250 242 239 256 290 281 264 261 251 245 247 245 240 226 220 228 234 238 214 218 220 247 251 247 249 259 272 278 276 285 301 271 289 304 300
257 258 260 256 253 256 258 259 258 267 266 265 258 256 249 242 238 230 228 224 186 215 233 243 266 265 250 241 239 235 236 221 217 231 223 233 240 216 238 250 261 256 258 265 272 275 276 283 273 284 300 300 303 306
253 255 259 257 254 251 256 258 252 260 263 263 260 256 252 254 249 242 233 205 232 193 203 233 248 324 214 196 198 218 211 215 221 229 236 230 252 234 246 247 257 265 271 269 262 262 272 287 295 299 302 308 311 310
257 252 256 254 249 246 252 254 252 255 261 263 261 258 256 246 234 232 241 237 230 227 223 197 164 234 198 228 204 191 191 187 214 211 224 216 224 225 228 254 281 291 319 296 295 299 299 297 303 307 312 314 311 309
247 252 258 255 251 243 251 255 252 250 255 261 255 242 222 206 215 222 186 197 208 220 228 224 194 231 209 190 213 129 181 212 214 234 185 216 238 246 25 78 89 355 319 321 331 322 318 313 314 313 313 312 308 305
255 257 256 252 250 245 245 249 245 244 249 242 227 229 207 179 170 172 194 198 195 215 208 209 205 210 206 166 197 202 193 196 209 248 162 253 275 155 349 324 339 327 323 323 315 309 307 305 309 312 312 310 312 313
260 256 260 254 245 241 241 244 238 231 231 230 240 204 175 174 181 186 189 176 205 210 227 172 212 198 185 184 146 187 191 181 234 118 105 258 235 88 357 332 324 321 319 315 315 314 313 309 310 309 310 313 314 311
257 259 261 259 250 243 236 234 232 232 232 235 219 195 172 181 197 199 171 260 227 215 190 183 206 178 166 197 170 167 184 220 94 89 215 218 96 1 344 334 324 323 324 320 319 318 317 317 317 318 317 317 317 317
257 257 254 254 250 247 240 234 229 224 216 208 190 199 187 196 220 178 175 181 187 200 186 168 136 180 165 126 194 174 216 116 191 198 230 170 335 336 334 331 326 324 326 324 324 322 320 320 322 322 321 323 321 313
254 258 254 248 241 237 232 229 227 219 222 213 195 202 184 156 71 112 123 125 135 141 142 118 90 223 226 219 198 179 208 236 202 221 167 283 323 326 325 324 323 323 323 321 322 321 321 324 322 321 326 324 319 320
247 249 243 238 242 238 232 228 224 223 199 205 159 127 155 111 32 87 116 120 142 152 132 117 159 188 236 208 200 216 138 219 228 182 298 319 324 322 321 323 322 321 320 319 321 323 324 324 323 323 324 324 325 330
242 245 240 242 244 232 216 209 195 164 184 150 146 111 110 86 100 133 125 153 162 162 179 155 188 212 18 219 230 195 208 197 195 310 324 328 320 323 326 323 324 324 323 324 327 326 322 325 329 322 324 333 337 341
238 246 237 235 229 206 189 155 147 118 80 67 145 91 81 89 114 130 137 142 152 154 145 194 91 141 198 191 253 211 187 257 299 324 331 334 333 333 330 327 330 332 332 333 331 330 335 331 326 330 332 340 348 359
234 257 244 229 224 165 118 82 112 111 91 91 94 86 96 109 108 127 139 140 145 135 141 106 114 207 226 172 179 196 279 314 313 325 333 354 352 348 345 343 345 345 344 346 351 347 340 342 341 341 344 356 7 19
190 99 119 167 164 95 86 56 67 84 73 88 97 96 88 90 108 106 118 124 133 137 94 178 211 192 157 169 273 298 305 310 312 324 354 29 14 13 11 0 360 360 5 14 18 9 10 17 16 8 14 22 35 44
112 96 97 114 78 76 84 65 69 83 119 112 113 61 82 103 98 103 107 142 156 115 201 180 159 174 264 285 274 273 288 286 301 304 328 351 25 28 28 28 30 31 32 31 30 27 27 23 20 29 43 51 54 56
115 106 90 80 77 71 73 47 88 87 67 105 105 94 83 54 45 84 103 74 171 164 160 167 194 224 205 183 226 269 295 331 349 15 37 32 32 39 38 37 42 42 40 38 39 35 34 37 43 49 56 60 64 68
118 109 54 44 87 55 37 54 73 45 87 85 93 58 24 28 85 133 95 226 196 177 171 165 147 139 135 119 100 93 90 89 96 94 87 73 54 41 40 38 38 40 41 40 41 42 44 48 52 55 59 62 64 68
97 61 35 40 35 67 49 32 61 77 95 53 66 58 338 227 118 42 247 256 182 178 172 163 159 152 144 131 121 106 98 92 87 80 72 57 38 28 22 21 27 28 25 25 31 37 41 45 47 49 52 54 56 56
96 12 18 10 24 46 41 21 0 57 83 10 81 18 314 42 43 318 237 246 186 183 176 168 168 172 161 150 143 131 120 113 101 64 37 25 18 11 7 8 8 8 11 10 17 22 25 28 31 35 38 42 44 46
68 8 46 326 348 81 286 70 40 113 92 62 49 309 34 76 51 251 234 197 187 188 185 179 174 175 179 180 187 201 252 290 294 288 295 311 325 333 351 2 8 9 6 6 9 12 11 9 9 10 11 13 14 15
64 349 28 31 42 85 62 52 90 84 83 139 224 59 77 153 249 252 194 182 181 183 179 181 184 188 191 189 195 225 274 303 325 310 301 304 299 308 329 348 1 4 6 6 4 2 360 0 360 360 359 353 349 348
80 34 77 347 47 40 119 75 78 146 171 139 107 176 180 207 243 268 201 186 181 181 184 184 186 190 198 217 242 270 300 304 299 313 315 313 312 305 317 337 349 353 356 357 357 355 351 349 346 344 342 339 336 333
52 34 15 23 30 37 123 146 206 167 153 168 156 246 254 251 251 293 225 189 185 190 196 198 200 212 221 235 261 282 289 299 301 300 309 310 310 312 318 320 322 323 325 329 329 330 333 332 332 332 330 326 323 320
20 12 67 57 96 268 202 170 156 185 214 230 266 279 272 271 281 253 227 209 204 204 205 213 225 233 241 250 262 277 285 290 292 291 297 308 310 309 307 305 306 307 308 312 315 315 313 312 313 312 313 314 313 310
351 343 49 84 211 154 198 274 279 268 250 251 244 250 273 298 299 240 218 210 209 212 216 225 234 242 250 259 269 279 283 286 286 287 296 301 303 305 304 301 300 300 302 306 311 315 315 313 312 311 310 309 309 306
346 30 111 10 307 308 309 327 281 263 238 247 242 251 284 288 279 235 212 217 222 228 236 241 247 257 270 272 266 272 284 287 288 292 292 296 300 303 302 302 305 306 308 310 312 311 310 308 307 305 304 302 301 299
325 336 344 330 355 5 345 340 17 335 258 271 258 277 271 269 250 224 207 221 214 209 216 236 247 251 256 270 284 291 294 299 300 299 300 300 300 300 299 300 301 302 304 306 307 307 305 304 302 301 298 296 295 293